TimeEST,TemperatureF,Dew PointF,Humidity,Sea Level PressureIn,VisibilityMPH,Wind Direction,Wind SpeedMPH,Gust SpeedMPH,PrecipitationIn,Events,Conditions,WindDirDegrees,DateUTC
12:54 AM,48.9,27.0,43,30.19,10.0,SSW,6.9,-,N/A,,Clear,200,2013-12-20 05:54:00
1:54 AM,48.9,26.1,41,30.18,10.0,SSW,6.9,-,N/A,,Clear,200,2013-12-20 06:54:00
2:54 AM,50.0,27.0,41,30.18,10.0,South,9.2,-,N/A,,Clear,190,2013-12-20 07:54:00
3:54 AM,48.0,28.0,46,30.18,10.0,South,9.2,-,N/A,,Clear,190,2013-12-20 08:54:00
4:54 AM,48.0,28.0,46,30.18,10.0,South,8.1,-,N/A,,Clear,190,2013-12-20 09:54:00
5:54 AM,48.0,28.0,46,30.18,10.0,SSW,9.2,-,N/A,,Clear,200,2013-12-20 10:54:00
6:54 AM,48.9,30.0,48,30.18,10.0,SSW,12.7,-,N/A,,Clear,200,2013-12-20 11:54:00
7:54 AM,50.0,33.1,52,30.19,10.0,SSW,12.7,-,N/A,,Clear,200,2013-12-20 12:54:00
8:54 AM,53.1,35.1,50,30.19,10.0,SSW,10.4,-,N/A,,Clear,210,2013-12-20 13:54:00
9:54 AM,53.1,37.9,57,30.19,10.0,SSW,11.5,-,N/A,,Clear,200,2013-12-20 14:54:00
10:54 AM,57.0,42.1,57,30.18,10.0,SSW,11.5,-,N/A,,Clear,200,2013-12-20 15:54:00
11:54 AM,59.0,46.0,62,30.15,10.0,SW,12.7,20.7,N/A,,Clear,220,2013-12-20 16:54:00
12:54 PM,61.0,46.9,60,30.12,10.0,SW,15.0,24.2,N/A,,Clear,220,2013-12-20 17:54:00
1:54 PM,64.0,48.0,56,30.09,10.0,SSW,10.4,21.9,N/A,,Clear,210,2013-12-20 18:54:00
2:54 PM,64.9,48.9,56,30.07,10.0,SSW,17.3,26.5,N/A,,Partly Cloudy,210,2013-12-20 19:54:00
3:54 PM,64.9,48.9,56,30.07,10.0,SSW,10.4,18.4,N/A,,Clear,210,2013-12-20 20:54:00
4:54 PM,62.1,48.9,62,30.09,10.0,SSW,10.4,-,N/A,,Clear,210,2013-12-20 21:54:00
5:54 PM,59.0,50.0,72,30.10,10.0,South,8.1,-,N/A,,Clear,190,2013-12-20 22:54:00
6:54 PM,57.9,51.1,78,30.10,10.0,South,8.1,-,N/A,,Clear,180,2013-12-20 23:54:00
7:54 PM,57.9,50.0,75,30.11,10.0,South,8.1,-,N/A,,Clear,190,2013-12-21 00:54:00
8:54 PM,57.9,48.9,72,30.11,10.0,South,5.8,-,N/A,,Clear,190,2013-12-21 01:54:00
9:54 PM,57.9,46.9,67,30.11,10.0,SSW,9.2,-,N/A,,Clear,200,2013-12-21 02:54:00
10:54 PM,57.9,46.0,65,30.12,10.0,SSW,8.1,-,N/A,,Clear,210,2013-12-21 03:54:00
11:54 PM,57.0,46.0,67,30.11,10.0,South,6.9,-,N/A,,Clear,190,2013-12-21 04:54:00